When you browse on this site, cookies collect data to enhance your experience and personalize the content and advertising you see.
Visit our Privacy Policy to learn more. By continuing to use the site, you agree to this use of cookies and data.
  • In Portugal
  • List of Countries
  • For 7 days
  • Water Temperature
  • Satellite Maps
  • Weather Map
  • Weather Widgets
  • user-avatar
    Login

    Hourly Weather Brussels

    Today, 22 May, Wednesday

    Time Temperature Precipitation Wind Pressure Humidity
    00:00 +8°C° 0 mm 2 mps 761 mmHg 92%
    01:00 +8°C° 0 mm 2 mps 761 mmHg 92%
    02:00 +8°C° 0 mm 2 mps 761 mmHg 92%
    03:00 +8°C° 0 mm 2 mps 761 mmHg 92%
    04:00 +9°C° 0 mm 2 mps 761 mmHg 88%
    05:00 +10°C° 0 mm 2 mps 761 mmHg 84%
    06:00 +12°C° 0 mm 1 mps 761 mmHg 81%
    07:00 +14°C° 0 mm 2 mps 761 mmHg 75%
    08:00 +15°C° 0 mm 2 mps 761 mmHg 69%
    09:00 +17°C° 0 mm 2 mps 761 mmHg 64%
    10:00 +18°C° 0.1 mm 2 mps 761 mmHg 62%
    11:00 +19°C° 0.1 mm 2 mps 762 mmHg 60%
    12:00 +19°C° 0.1 mm 3 mps 762 mmHg 58%
    13:00 +19°C° 0 mm 3 mps 761 mmHg 56%
    14:00 +20°C° 0 mm 3 mps 761 mmHg 53%
    15:00 +20°C° 0 mm 4 mps 761 mmHg 51%
    16:00 +19°C° 0 mm 3 mps 761 mmHg 54%
    17:00 +17°C° 0 mm 3 mps 761 mmHg 57%
    18:00 +16°C° 0 mm 2 mps 761 mmHg 61%
    19:00 +15°C° 0 mm 2 mps 761 mmHg 62%
    20:00 +13°C° 0 mm 1 mps 762 mmHg 64%
    21:00 +11°C° 0 mm 0 mps 762 mmHg 65%
    22:00 +11°C° 0 mm 1 mps 762 mmHg 66%
    23:00 +11°C° 0 mm 1 mps 762 mmHg 66%

    Tomorrow, 23 May, Thursday

    Time Temperature Precipitation Wind Pressure Humidity
    00:00 +11°C° 0 mm 1 mps 762 mmHg 66%
    01:00 +10°C° 0 mm 1 mps 762 mmHg 67%
    02:00 +10°C° 0 mm 1 mps 762 mmHg 69%
    03:00 +9°C° 0 mm 2 mps 761 mmHg 70%
    04:00 +10°C° 0 mm 2 mps 761 mmHg 71%
    05:00 +12°C° 0 mm 2 mps 761 mmHg 72%
    06:00 +13°C° 0 mm 2 mps 762 mmHg 73%
    07:00 +14°C° 0 mm 2 mps 761 mmHg 70%
    08:00 +16°C° 0 mm 2 mps 761 mmHg 67%
    09:00 +18°C° 0 mm 2 mps 761 mmHg 64%
    10:00 +19°C° 0 mm 3 mps 761 mmHg 59%
    11:00 +20°C° 0 mm 3 mps 761 mmHg 53%
    12:00 +21°C° 0 mm 3 mps 761 mmHg 48%
    13:00 +21°C° 0 mm 3 mps 761 mmHg 47%
    14:00 +21°C° 0 mm 3 mps 760 mmHg 46%
    15:00 +21°C° 0 mm 3 mps 760 mmHg 46%
    16:00 +21°C° 0 mm 2 mps 760 mmHg 50%
    17:00 +20°C° 0 mm 2 mps 760 mmHg 54%
    18:00 +19°C° 0 mm 2 mps 760 mmHg 59%
    19:00 +18°C° 0 mm 1 mps 760 mmHg 62%
    20:00 +15°C° 0 mm 1 mps 760 mmHg 65%
    21:00 +13°C° 0 mm 1 mps 760 mmHg 69%
    22:00 +13°C° 0 mm 1 mps 760 mmHg 70%
    23:00 +11°C° 0 mm 0 mps 760 mmHg 72%

    Day after tomorrow, 24 May, Friday

    Time Temperature Precipitation Wind Pressure Humidity
    00:00 +11°C° 0 mm 0 mps 760 mmHg 74%
    01:00 +11°C° 0 mm 0 mps 760 mmHg 72%
    02:00 +11°C° 0 mm 0 mps 760 mmHg 71%
    03:00 +12°C° 0 mm 0 mps 760 mmHg 70%
    04:00 +13°C° 0 mm 0 mps 760 mmHg 69%
    05:00 +13°C° 0 mm 0 mps 760 mmHg 68%
    06:00 +14°C° 0 mm 0 mps 760 mmHg 67%
    07:00 +18°C° 0 mm 1 mps 760 mmHg 65%
    08:00 +19°C° 0 mm 1 mps 760 mmHg 62%
    09:00 +20°C° 0 mm 2 mps 760 mmHg 59%
    10:00 +20°C° 0 mm 2 mps 760 mmHg 57%
    11:00 +21°C° 0 mm 3 mps 760 mmHg 54%
    12:00 +22°C° 0 mm 3 mps 759 mmHg 52%
    13:00 +21°C° 0 mm 4 mps 759 mmHg 54%
    14:00 +21°C° 0 mm 4 mps 759 mmHg 56%
    15:00 +20°C° 0 mm 4 mps 759 mmHg 57%
    16:00 +20°C° 0 mm 4 mps 759 mmHg 60%
    17:00 +19°C° 0 mm 4 mps 759 mmHg 63%
    18:00 +18°C° 0 mm 3 mps 759 mmHg 65%
    19:00 +16°C° 0 mm 3 mps 759 mmHg 69%
    20:00 +13°C° 0 mm 3 mps 760 mmHg 74%
    21:00 +13°C° 0 mm 2 mps 760 mmHg 78%
    22:00 +12°C° 0 mm 2 mps 760 mmHg 80%
    23:00 +12°C° 0 mm 1 mps 760 mmHg 82%

    25 May, Saturday

    Time Temperature Precipitation Wind Pressure Humidity
    00:00 +11°C° 0 mm 1 mps 760 mmHg 84%
    01:00 +11°C° 0 mm 1 mps 760 mmHg 85%
    02:00 +9°C° 0 mm 0 mps 760 mmHg 86%
    03:00 +9°C° 0 mm 0 mps 760 mmHg 87%
    04:00 +10°C° 0 mm 0 mps 760 mmHg 84%
    05:00 +11°C° 0 mm 0 mps 761 mmHg 81%
    06:00 +12°C° 0 mm 0 mps 761 mmHg 78%
    07:00 +13°C° 0 mm 0 mps 761 mmHg 75%
    08:00 +13°C° 0 mm 0 mps 761 mmHg 73%
    09:00 +15°C° 0 mm 1 mps 761 mmHg 70%
    10:00 +16°C° 0 mm 1 mps 761 mmHg 68%
    11:00 +19°C° 0 mm 1 mps 761 mmHg 65%
    12:00 +20°C° 0 mm 1 mps 761 mmHg 63%
    13:00 +20°C° 0 mm 1 mps 760 mmHg 63%
    14:00 +20°C° 0 mm 1 mps 760 mmHg 63%
    15:00 +20°C° 0 mm 2 mps 760 mmHg 62%
    16:00 +19°C° 0 mm 2 mps 760 mmHg 65%
    17:00 +19°C° 0 mm 2 mps 760 mmHg 67%
    18:00 +18°C° 0 mm 2 mps 760 mmHg 70%
    19:00 +17°C° 0 mm 2 mps 760 mmHg 73%
    20:00 +16°C° 0 mm 2 mps 760 mmHg 75%
    21:00 +14°C° 0 mm 2 mps 760 mmHg 78%
    22:00 +14°C° 0 mm 2 mps 760 mmHg 80%
    23:00 +13°C° 0 mm 2 mps 760 mmHg 82%

    26 May, Sunday

    Time Temperature Precipitation Wind Pressure Humidity
    00:00 +13°C° 0 mm 2 mps 760 mmHg 84%
    01:00 +13°C° 0 mm 2 mps 760 mmHg 87%
    02:00 +12°C° 0 mm 2 mps 760 mmHg 89%
    03:00 +11°C° 0 mm 3 mps 760 mmHg 91%
    04:00 +12°C° 0 mm 3 mps 759 mmHg 90%
    05:00 +13°C° 0 mm 3 mps 759 mmHg 88%
    06:00 +14°C° 0 mm 4 mps 759 mmHg 86%
    07:00 +15°C° 0 mm 4 mps 759 mmHg 83%
    08:00 +17°C° 0 mm 4 mps 759 mmHg 80%
    09:00 +19°C° 0 mm 5 mps 759 mmHg 76%
    10:00 +19°C° 0.1 mm 4 mps 759 mmHg 76%
    11:00 +19°C° 0.1 mm 4 mps 759 mmHg 76%
    12:00 +19°C° 0.1 mm 4 mps 759 mmHg 76%
    13:00 +20°C° 0.2 mm 4 mps 759 mmHg 75%
    14:00 +21°C° 0.2 mm 4 mps 759 mmHg 74%
    15:00 +21°C° 0.2 mm 4 mps 758 mmHg 73%
    16:00 +21°C° 0.3 mm 4 mps 758 mmHg 75%
    17:00 +20°C° 0.3 mm 4 mps 758 mmHg 78%
    18:00 +20°C° 0.3 mm 4 mps 758 mmHg 80%
    19:00 +19°C° 0.1 mm 4 mps 758 mmHg 84%
    20:00 +18°C° 0.1 mm 4 mps 758 mmHg 88%
    21:00 +15°C° 0.1 mm 4 mps 758 mmHg 92%
    22:00 +15°C° 0.2 mm 4 mps 758 mmHg 93%
    23:00 +15°C° 0.2 mm 4 mps 758 mmHg 94%

    27 May, Monday

    Time Temperature Precipitation Wind Pressure Humidity
    00:00 +15°C° 0.2 mm 4 mps 758 mmHg 95%
    01:00 +15°C° 0.3 mm 4 mps 758 mmHg 94%
    02:00 +14°C° 0.3 mm 4 mps 758 mmHg 94%
    03:00 +14°C° 0.3 mm 4 mps 758 mmHg 94%
    04:00 +14°C° 0 mm 3 mps 758 mmHg 91%
    05:00 +13°C° 0 mm 3 mps 758 mmHg 89%
    06:00 +13°C° 0 mm 3 mps 758 mmHg 86%
    07:00 +14°C° 0 mm 3 mps 758 mmHg 79%
    08:00 +15°C° 0 mm 4 mps 758 mmHg 72%
    09:00 +17°C° 0 mm 4 mps 759 mmHg 65%
    10:00 +18°C° 0 mm 4 mps 759 mmHg 61%
    11:00 +18°C° 0 mm 4 mps 759 mmHg 57%
    12:00 +19°C° 0 mm 4 mps 759 mmHg 53%
    13:00 +19°C° 0 mm 4 mps 759 mmHg 53%
    14:00 +19°C° 0 mm 4 mps 759 mmHg 54%
    15:00 +19°C° 0 mm 4 mps 758 mmHg 54%
    16:00 +18°C° 0 mm 4 mps 758 mmHg 57%
    17:00 +17°C° 0 mm 3 mps 758 mmHg 60%
    18:00 +16°C° 0 mm 3 mps 758 mmHg 64%
    19:00 +15°C° 0 mm 2 mps 758 mmHg 66%
    20:00 +13°C° 0 mm 1 mps 758 mmHg 67%
    21:00 +11°C° 0 mm 0 mps 758 mmHg 69%
    22:00 +11°C° 0 mm 0 mps 758 mmHg 71%
    23:00 +11°C° 0 mm 1 mps 758 mmHg 73%
    Show more